[[{"header":{"parameterUnit":"m.s-1","parameterCategory":2,"la1":30.2991,"la2":30.254,"lo1":-89.0895,"lo2":-89.0444,"dx":0.0017,"dy":0.0017,"nx":28,"ny":28,"refTime":"2022-12-03T09:00:00:Z","depth":"0","parameterNumber":2,"parameterNumberName":"U-component_of_CURRENTS"},"data":[0,0,0,0,0,0,0,0,0,0,0,0,0,0,0,0,0,0,0,0,0,0,0,0,0,0,0,0,0,0,0,0,0,0,0,0,0,0,0,0,0,0,0,0,0,0,0,0,0,0,0,0,0,0,0,0,0,0,-0.0138,-0.0138,0,-0.0115,-0.0115,-0.0115,-0.0087,-0.0086,-0.0086,-0.0085,-0.0055,-0.0054,-0.0054,0,0,0,0,0,0,0,0,0,0,0,0,0,-0.0165,-0.0165,-0.0138,-0.0138,-0.0137,-0.0115,-0.0115,-0.0115,-0.0087,-0.0086,-0.0086,-0.0085,-0.0055,-0.0055,-0.0054,0,0,0,0,0,0,0,0,0,0,0,0,0,-0.0149,-0.0164,-0.0138,-0.0121,-0.0119,-0.0115,-0.0115,-0.0115,-0.0087,-0.0086,-0.0086,-0.0085,-0.0055,-0.0055,-0.0054,-0.0065,0,0,-0.0052,-0.0052,0,0,0,0,0,0,0,0,-0.015,-0.0148,-0.0124,-0.0122,-0.012,-0.0103,-0.0113,-0.0097,-0.0087,-0.01,-0.0085,-0.0085,-0.007,-0.0068,-0.0067,-0.0064,-0.0062,-0.0052,-0.0052,-0.0052,-0.0052,0,0,0,0,0,0,0,-0.0151,-0.0149,-0.013,-0.0123,-0.0121,-0.0116,-0.0113,-0.011,-0.009,-0.0099,-0.0096,-0.0093,-0.0069,-0.0067,-0.0066,-0.0062,-0.0052,-0.0052,-0.0051,-0.0051,-0.0064,-0.0065,0,0,0,0,0,0,-0.0153,-0.015,-0.013,-0.0129,-0.0133,-0.0116,-0.0113,-0.0109,-0.009,-0.0086,-0.0094,-0.0092,-0.0069,-0.0066,-0.0064,-0.0075,-0.0052,-0.0051,-0.0051,-0.0063,-0.0064,-0.0065,0,0,0,0,0,0,-0.0154,-0.0152,-0.0131,-0.0139,-0.0135,-0.0116,-0.0113,-0.0109,-0.0105,-0.0086,-0.0082,-0.0093,-0.0068,-0.0065,-0.0065,-0.0074,-0.0051,-0.005,-0.0063,-0.0064,-0.0065,-0.0098,0,0,0,0,0,0,-0.0155,-0.0152,-0.0154,-0.0139,-0.0135,-0.0136,-0.0113,-0.0109,-0.0104,-0.0101,-0.0084,-0.0081,-0.0067,-0.0067,-0.0065,-0.0073,-0.005,-0.0062,-0.0063,-0.0064,-0.0096,-0.01,-0.0103,0,0,0,0,0,-0.0156,-0.0165,-0.0154,-0.0152,-0.0137,-0.0136,-0.0135,-0.0119,-0.0105,-0.0111,-0.0097,-0.0081,-0.0073,-0.0067,-0.0065,-0.0073,-0.0061,-0.0063,-0.0064,-0.0094,-0.0099,-0.0103,0,0,0,0,0,0,-0.0187,-0.0162,-0.0151,-0.0153,-0.0147,-0.0131,-0.0136,-0.0122,-0.0116,-0.011,-0.0091,-0.0087,-0.0088,-0.008,-0.0073,-0.0081,-0.0064,-0.0066,-0.0088,-0.0092,-0.0096,-0.0114,-0.005,0,0,0,0,0,-0.0192,-0.0185,-0.0169,-0.0173,-0.017,-0.0153,-0.015,-0.0137,-0.0127,-0.0123,-0.0115,-0.0103,-0.0095,-0.0093,-0.0086,-0.0094,-0.0096,-0.0097,-0.0101,-0.0104,-0.0119,-0.0125,-0.0131,-0.007,-0.007,-0.007,0,0,-0.0206,-0.0191,-0.0189,-0.0178,-0.017,-0.0174,-0.015,-0.0148,-0.0154,-0.0122,-0.0134,-0.0116,-0.0099,-0.0104,-0.0104,-0.0097,-0.0124,-0.0106,-0.0109,-0.0122,-0.0127,-0.0133,-0.0139,-0.0071,-0.0071,-0.007,0,0,-0.0231,-0.0218,-0.022,-0.0213,-0.02,-0.0192,-0.0193,-0.0181,-0.018,-0.0186,-0.016,-0.0151,-0.0148,-0.0136,-0.0128,-0.0151,-0.0141,-0.0146,-0.0181,-0.0187,-0.0193,-0.0197,-0.0213,-0.0219,-0.015,-0.015,-0.015,0,-0.025,-0.0245,-0.0224,-0.0226,-0.0224,-0.0203,-0.0211,-0.0213,-0.0204,-0.0208,-0.0197,-0.0185,-0.0166,-0.0166,-0.0171,-0.016,-0.0166,-0.0164,-0.0193,-0.0197,-0.0201,-0.0216,-0.0222,-0.0152,-0.0152,-0.0151,-0.0151,0,-0.027,-0.0269,-0.0273,-0.0264,-0.0265,-0.0268,-0.0262,-0.0269,-0.0263,-0.026,-0.0264,-0.0241,-0.0233,-0.0223,-0.0204,-0.0219,-0.0216,-0.0194,-0.0182,-0.0209,-0.0224,-0.0229,-0.0154,-0.0154,-0.0153,-0.0153,0,0,-0.0305,-0.029,-0.0291,-0.029,-0.028,-0.0283,-0.0302,-0.031,-0.0321,-0.032,-0.0337,-0.0317,-0.03,-0.0292,-0.0263,-0.0268,-0.0296,-0.0249,-0.0248,-0.0266,-0.0322,-0.0366,-0.0376,-0.0278,-0.0279,-0.028,-0.0323,0,-0.0328,-0.0334,-0.0322,-0.0337,-0.0341,-0.033,-0.0349,-0.0353,-0.0357,-0.0374,-0.0357,-0.0358,-0.0328,-0.0318,-0.0321,-0.0297,-0.0312,-0.0287,-0.0292,-0.0293,-0.0329,-0.0384,-0.0418,-0.0464,-0.0328,-0.0329,-0.033,0,-0.0346,-0.0347,-0.0359,-0.0363,-0.0365,-0.0374,-0.0391,-0.0403,-0.0419,-0.0422,-0.0424,-0.0412,-0.0415,-0.0384,-0.0385,-0.0372,-0.0359,-0.0345,-0.0346,-0.0382,-0.0347,-0.0413,-0.0479,-0.049,-0.0338,-0.0337,-0.0337,0,-0.0363,-0.0373,-0.0381,-0.0381,-0.0385,-0.0396,-0.0404,-0.0417,-0.043,-0.0451,-0.0462,-0.0464,-0.0467,-0.0456,-0.0434,-0.041,-0.0445,-0.0401,-0.0434,-0.0436,-0.0467,-0.0471,-0.0547,-0.0417,-0.0417,-0.0417,-0.0417,0,-0.0379,-0.0388,-0.039,-0.039,-0.041,-0.041,-0.0432,-0.0441,-0.0461,-0.0483,-0.0483,-0.0508,-0.0486,-0.0499,-0.047,-0.0488,-0.0475,-0.0467,-0.046,-0.048,-0.0485,-0.0495,-0.0495,-0.0419,-0.0418,-0.0418,-0.0418,0,-0.0387,-0.0388,-0.0396,-0.0406,-0.0411,-0.0423,-0.0441,-0.0458,-0.0477,-0.0509,-0.0518,-0.055,-0.058,-0.0566,-0.0559,-0.0543,-0.0557,-0.0546,-0.0582,-0.0581,-0.0622,-0.0623,-0.0693,-0.0669,-0.0597,-0.0598,-0.0599,0,-0.0391,-0.0392,-0.04,-0.0408,-0.041,-0.0429,-0.0441,-0.046,-0.0476,-0.0537,-0.0554,-0.0607,-0.0657,-0.0686,-0.0677,-0.0674,-0.0627,-0.0684,-0.0645,-0.0663,-0.0657,-0.0631,-0.0602,-0.0694,-0.0696,-0.0698,-0.0699,0,-0.0393,-0.039,-0.0394,-0.0404,-0.0416,-0.0436,-0.0456,-0.0466,-0.0499,-0.0544,-0.0619,-0.0676,-0.0749,-0.0803,-0.081,-0.0782,-0.0707,-0.0718,-0.0722,-0.0751,-0.0742,-0.0701,-0.0627,-0.0713,-0.0712,-0.0711,-0.071,-0.0709,-0.0389,-0.0393,-0.0391,-0.04,-0.0422,-0.0438,-0.044,-0.047,-0.0507,-0.0574,-0.0661,-0.0796,-0.0899,-0.0939,-0.0898,-0.0887,-0.0827,-0.0852,-0.0854,-0.0827,-0.0808,-0.0783,-0.0867,-0.0866,-0.0866,-0.0865,-0.0865,0,-0.0387,-0.0386,-0.039,-0.0405,-0.0427,-0.0435,-0.0447,-0.0437,-0.0473,-0.06,-0.07,-0.0977,-0.105,-0.1085,-0.1101,-0.1043,-0.0956,-0.0991,-0.0953,-0.0912,-0.0889,-0.0898,-0.1009,-0.1009,-0.1009,-0.1009,-0.1009,-0.1009,-0.0388,-0.0384,-0.0382,-0.0402,-0.0419,-0.043,-0.0427,-0.0414,-0.0467,-0.0621,-0.0844,-0.1034,-0.1147,-0.1335,-0.1276,-0.1178,-0.1083,-0.1074,-0.1012,-0.1,-0.0986,-0.0973,-0.0981,-0.1108,-0.1108,-0.101,-0.101,-0.101]},{"header":{"parameterUnit":"m.s-1","parameterCategory":2,"la1":30.2991,"la2":30.254,"lo1":-89.0895,"lo2":-89.0444,"dx":0.0017,"dy":0.0017,"nx":28,"ny":28,"refTime":"2022-12-03T09:00:00:Z","depth":"0","parameterNumber":3,"parameterNumberName":"V-component_of_CURRENTS"},"data":[0,0,0,0,0,0,0,0,0,0,0,0,0,0,0,0,0,0,0,0,0,0,0,0,0,0,0,0,0,0,0,0,0,0,0,0,0,0,0,0,0,0,0,0,0,0,0,0,0,0,0,0,0,0,0,0,0,0,0.0498,0.0497,0,0.0458,0.0458,0.0458,0.0475,0.0476,0.0477,0.0478,0.0441,0.0439,0.0438,0,0,0,0,0,0,0,0,0,0,0,0,0,0.0591,0.0589,0.0498,0.0497,0.0497,0.0459,0.0458,0.0458,0.0475,0.0476,0.0477,0.0478,0.0442,0.044,0.0437,0,0,0,0,0,0,0,0,0,0,0,0,0,0.0552,0.0589,0.0498,0.05,0.05,0.0459,0.0458,0.0457,0.0475,0.0476,0.0477,0.0479,0.0442,0.044,0.0437,0.0393,0,0,0.0429,0.0428,0,0,0,0,0,0,0,0,0.0554,0.0548,0.05,0.05,0.05,0.0473,0.0478,0.0436,0.0474,0.0485,0.0478,0.0479,0.045,0.0447,0.0438,0.0391,0.039,0.0429,0.0427,0.0426,0.0425,0,0,0,0,0,0,0,0.0557,0.055,0.0483,0.05,0.0499,0.0504,0.05,0.047,0.0461,0.0484,0.0485,0.0479,0.0451,0.044,0.0437,0.0389,0.0429,0.0426,0.0424,0.0423,0.0326,0.0325,0,0,0,0,0,0,0.0558,0.0552,0.0484,0.0482,0.053,0.0502,0.0497,0.048,0.0461,0.046,0.0478,0.048,0.0444,0.044,0.0436,0.0395,0.0426,0.0423,0.0422,0.0327,0.0326,0.0325,0,0,0,0,0,0,0.056,0.0552,0.0486,0.0517,0.0509,0.0498,0.048,0.0479,0.047,0.0457,0.0456,0.047,0.0445,0.044,0.0411,0.0393,0.0422,0.0419,0.0328,0.0326,0.0325,0.0305,0,0,0,0,0,0,0.0563,0.0552,0.054,0.0516,0.0507,0.0456,0.0478,0.0477,0.0464,0.0466,0.0449,0.0447,0.0446,0.0415,0.0409,0.039,0.0417,0.0329,0.0327,0.0326,0.0307,0.0303,0.03,0,0,0,0,0,0.0566,0.0533,0.0539,0.0531,0.0489,0.0455,0.045,0.0449,0.0462,0.0448,0.0445,0.0448,0.04,0.0412,0.0404,0.0385,0.033,0.0328,0.0326,0.0309,0.0304,0.03,0,0,0,0,0,0,0.0558,0.0531,0.0537,0.0497,0.0479,0.0457,0.0441,0.0442,0.0427,0.0431,0.043,0.0426,0.0399,0.0389,0.0403,0.0352,0.0366,0.0363,0.0356,0.0352,0.0348,0.0356,0.0415,0,0,0,0,0,0.0552,0.0528,0.0506,0.0475,0.0465,0.0455,0.0441,0.0438,0.0422,0.0418,0.0411,0.0399,0.038,0.0366,0.035,0.0311,0.0318,0.0295,0.0292,0.0289,0.0289,0.0287,0.0284,0.0318,0.0318,0.0318,0,0,0.0542,0.0524,0.0511,0.0474,0.0462,0.0436,0.045,0.0422,0.0404,0.0413,0.0389,0.0385,0.0369,0.0338,0.0323,0.0328,0.0282,0.0286,0.0284,0.0286,0.0285,0.0282,0.0279,0.0316,0.0316,0.0317,0,0,0.0506,0.0493,0.0463,0.0448,0.0424,0.0414,0.0406,0.0385,0.0381,0.0354,0.0362,0.0351,0.0316,0.0307,0.0296,0.0258,0.0267,0.0249,0.0229,0.0227,0.0225,0.0223,0.0227,0.0226,0.0242,0.0242,0.0242,0,0.0498,0.0455,0.0448,0.0419,0.0404,0.0405,0.0373,0.0361,0.0337,0.033,0.0345,0.0312,0.0303,0.0268,0.0262,0.0251,0.0254,0.0248,0.0224,0.0222,0.0221,0.0226,0.0224,0.0241,0.0241,0.0241,0.0241,0,0.0443,0.0414,0.0393,0.0363,0.0346,0.0315,0.0304,0.029,0.0293,0.0288,0.0267,0.0263,0.0248,0.0239,0.0238,0.0213,0.0221,0.0226,0.0239,0.0216,0.0223,0.0222,0.0239,0.0239,0.024,0.024,0,0,0.0417,0.0365,0.036,0.0342,0.0315,0.0292,0.0266,0.024,0.0226,0.0222,0.0208,0.0188,0.0204,0.0193,0.0192,0.0188,0.0182,0.0199,0.02,0.0211,0.0181,0.0182,0.0181,0.0183,0.0182,0.0182,0.019,0,0.0379,0.0314,0.0301,0.0253,0.0223,0.0222,0.0199,0.0183,0.0179,0.0168,0.0174,0.0163,0.0179,0.0176,0.0174,0.0182,0.0178,0.018,0.0195,0.0195,0.0205,0.018,0.0178,0.0185,0.0189,0.0189,0.0189,0,0.0336,0.0298,0.0239,0.0201,0.0189,0.0167,0.0142,0.0121,0.0111,0.0113,0.0113,0.0125,0.0122,0.0143,0.015,0.015,0.0163,0.0172,0.0173,0.0182,0.0195,0.0207,0.0183,0.0246,0.0188,0.0188,0.0188,0,0.0324,0.026,0.0212,0.0198,0.0153,0.0137,0.0122,0.0107,0.0089,0.0086,0.0081,0.0087,0.0092,0.011,0.0138,0.0143,0.0151,0.016,0.0172,0.0173,0.0178,0.018,0.0224,0.0162,0.0162,0.0162,0.0162,0,0.0291,0.0256,0.0204,0.018,0.0136,0.0121,0.0086,0.0076,0.0061,0.0037,0.0058,0.0044,0.0084,0.0096,0.0125,0.0147,0.0143,0.0166,0.0171,0.0171,0.0171,0.0232,0.0293,0.0162,0.0162,0.0162,0.0162,0,0.0283,0.0246,0.0195,0.0143,0.0128,0.0104,0.0068,0.0044,0.0035,0.0008,0.0008,0.0013,0.003,0.0069,0.0098,0.0126,0.0196,0.0158,0.016,0.0165,0.0234,0.0294,0.0385,0.0408,0.0173,0.0173,0.0173,0,0.027,0.0237,0.0176,0.0149,0.0126,0.0087,0.006,0.0039,0.001,-0.0017,-0.0036,-0.0024,-0.0023,0.0028,0.0076,0.0126,0.02,0.0162,0.0168,0.0235,0.0306,0.0367,0.0383,0.0169,0.0169,0.0169,0.0169,0,0.0245,0.0225,0.0184,0.0131,0.0097,0.0053,0.0012,-0.0015,-0.0047,-0.0079,-0.012,-0.0117,-0.0066,-0.0012,0.0071,0.0103,0.0232,0.0163,0.0229,0.0305,0.0377,0.0402,0.0176,0.0169,0.0169,0.0169,0.0169,0.0169,0.0234,0.0204,0.0153,0.0106,0.0066,0.0018,-0.0017,-0.007,-0.0124,-0.0191,-0.0175,-0.021,-0.0063,0.0042,0.009,0.0208,0.023,0.0247,0.0313,0.0367,0.0395,0.0171,0.0172,0.0172,0.0172,0.0172,0.0172,0,0.0207,0.0171,0.0128,0.0068,0.0027,0.001,-0.0056,-0.0096,-0.0171,-0.0262,-0.0298,-0.021,-0.006,0.0076,0.0292,0.0368,0.0384,0.0406,0.0492,0.0497,0.0286,0.0289,0.0318,0.0318,0.0318,0.0318,0.0318,0.0318,0.0189,0.0135,0.011,0.0039,0.0004,-0.0059,-0.0096,-0.0157,-0.0235,-0.0324,-0.0362,-0.0356,0.0004,0.0455,0.0644,0.0608,0.0681,0.067,0.0714,0.0572,0.0561,0.0552,0.0567,0.0653,0.0654,0.0889,0.0892,0.0894]}],[{"header":{"parameterUnit":"m.s-1","parameterCategory":2,"la1":30.2991,"la2":30.254,"lo1":-89.0895,"lo2":-89.0444,"dx":0.0017,"dy":0.0017,"nx":28,"ny":28,"refTime":"2022-12-03T09:00:00:Z","depth":"2","parameterNumber":2,"parameterNumberName":"U-component_of_CURRENTS"},"data":[0,0,0,0,0,0,0,0,0,0,0,0,0,0,0,0,0,0,0,0,0,0,0,0,0,0,0,0,0,0,0,0,0,0,0,0,0,0,0,0,0,0,0,0,0,0,0,0,0,0,0,0,0,0,0,0,0,0,-0.1843,-0.1844,0,-0.1913,-0.1914,-0.1915,-0.1831,-0.1828,-0.1825,-0.1822,-0.1747,-0.1748,-0.1749,0,0,0,0,0,0,0,0,0,0,0,0,0,-0.166,-0.1663,-0.1843,-0.1844,-0.1845,-0.1913,-0.1914,-0.1915,-0.1832,-0.1828,-0.1824,-0.1821,-0.1747,-0.1748,-0.1749,0,0,0,0,0,0,0,0,0,0,0,0,0,-0.1736,-0.1664,-0.1843,-0.1811,-0.1809,-0.1913,-0.1914,-0.1915,-0.1833,-0.1828,-0.1823,-0.1819,-0.1746,-0.1748,-0.1749,-0.1851,0,0,-0.1753,-0.1754,0,0,0,0,0,0,0,0,-0.1731,-0.1743,-0.1815,-0.1814,-0.1812,-0.1859,-0.1822,-0.1887,-0.1834,-0.1824,-0.1822,-0.1816,-0.1774,-0.1773,-0.1799,-0.1848,-0.1845,-0.1753,-0.1754,-0.1755,-0.1755,0,0,0,0,0,0,0,-0.1726,-0.1739,-0.1871,-0.1817,-0.1814,-0.1801,-0.1807,-0.1835,-0.1822,-0.1824,-0.1818,-0.1828,-0.1771,-0.1798,-0.1796,-0.1844,-0.1753,-0.1754,-0.1755,-0.1756,-0.1834,-0.1835,0,0,0,0,0,0,-0.1723,-0.1735,-0.1869,-0.1873,-0.1759,-0.1808,-0.1814,-0.1848,-0.1825,-0.1818,-0.1832,-0.1823,-0.1798,-0.1795,-0.1793,-0.1783,-0.1755,-0.1756,-0.1757,-0.1832,-0.1834,-0.1835,0,0,0,0,0,0,-0.1719,-0.1735,-0.1866,-0.1803,-0.1819,-0.1816,-0.1855,-0.1852,-0.1828,-0.1832,-0.182,-0.1804,-0.1794,-0.1791,-0.1796,-0.1783,-0.1757,-0.1758,-0.1831,-0.1833,-0.1835,-0.1846,0,0,0,0,0,0,-0.1714,-0.1734,-0.1742,-0.1804,-0.1822,-0.1912,-0.186,-0.1857,-0.1844,-0.1833,-0.1806,-0.1797,-0.179,-0.1794,-0.1798,-0.1785,-0.1759,-0.1829,-0.1832,-0.1834,-0.1844,-0.1848,-0.1852,0,0,0,0,0,-0.1707,-0.1746,-0.1743,-0.1758,-0.184,-0.1913,-0.1922,-0.1903,-0.1847,-0.1858,-0.1834,-0.1795,-0.181,-0.1798,-0.1801,-0.1788,-0.1828,-0.1831,-0.1834,-0.1843,-0.1847,-0.1852,0,0,0,0,0,0,-0.1671,-0.1744,-0.174,-0.1798,-0.1841,-0.1898,-0.19,-0.1891,-0.1887,-0.1845,-0.183,-0.1824,-0.182,-0.1819,-0.1806,-0.182,-0.1806,-0.181,-0.1812,-0.1816,-0.182,-0.1816,-0.176,0,0,0,0,0,-0.1673,-0.1712,-0.178,-0.1819,-0.1836,-0.1861,-0.1876,-0.1868,-0.1883,-0.1872,-0.1859,-0.1843,-0.1851,-0.184,-0.1852,-0.1875,-0.1866,-0.1865,-0.1869,-0.1872,-0.1873,-0.1872,-0.1875,-0.1844,-0.1844,-0.1844,0,0,-0.1666,-0.1711,-0.173,-0.1812,-0.1832,-0.1886,-0.1856,-0.1876,-0.19,-0.1869,-0.1872,-0.1859,-0.1863,-0.188,-0.1876,-0.1864,-0.1876,-0.1875,-0.1877,-0.1877,-0.1875,-0.1878,-0.188,-0.1846,-0.1846,-0.1846,0,0,-0.1685,-0.1714,-0.175,-0.1794,-0.1833,-0.1869,-0.1867,-0.1908,-0.1893,-0.1926,-0.1894,-0.188,-0.19,-0.1901,-0.1904,-0.1945,-0.19,-0.1928,-0.1936,-0.1935,-0.1937,-0.1938,-0.1924,-0.1925,-0.1923,-0.1923,-0.1923,0,-0.1663,-0.1736,-0.177,-0.1821,-0.1851,-0.1859,-0.1904,-0.1927,-0.1957,-0.1952,-0.1916,-0.1928,-0.1917,-0.1939,-0.194,-0.1949,-0.1933,-0.1913,-0.1937,-0.1939,-0.194,-0.1925,-0.1925,-0.1924,-0.1924,-0.1924,-0.1924,0,-0.1727,-0.1767,-0.1791,-0.1863,-0.1906,-0.1942,-0.1988,-0.1999,-0.1975,-0.1987,-0.198,-0.1979,-0.1973,-0.1968,-0.1963,-0.1966,-0.1945,-0.1944,-0.1919,-0.1943,-0.1927,-0.1927,-0.1926,-0.1925,-0.1925,-0.1925,0,0,-0.1702,-0.1814,-0.181,-0.1846,-0.1922,-0.1968,-0.201,-0.2061,-0.2062,-0.2059,-0.206,-0.2062,-0.2015,-0.2018,-0.1996,-0.1991,-0.198,-0.196,-0.1959,-0.1934,-0.1957,-0.1921,-0.1917,-0.1969,-0.1969,-0.1969,-0.1939,0,-0.1725,-0.1824,-0.1874,-0.1948,-0.2002,-0.2033,-0.2081,-0.2112,-0.2115,-0.2122,-0.2091,-0.2081,-0.2049,-0.2017,-0.2011,-0.199,-0.198,-0.1987,-0.1949,-0.1948,-0.1903,-0.1917,-0.1692,-0.1644,-0.1939,-0.1939,-0.1939,0,-0.175,-0.1824,-0.1896,-0.1993,-0.2013,-0.2043,-0.2095,-0.214,-0.2158,-0.2149,-0.2125,-0.2102,-0.2082,-0.2048,-0.2018,-0.2015,-0.1983,-0.1969,-0.1967,-0.1929,-0.1911,-0.1671,-0.1633,-0.1938,-0.1938,-0.1938,-0.1938,0,-0.171,-0.1824,-0.1876,-0.1911,-0.2028,-0.2027,-0.2069,-0.2109,-0.2138,-0.2134,-0.2138,-0.2116,-0.2085,-0.2056,-0.2008,-0.2004,-0.1977,-0.1974,-0.1918,-0.1915,-0.1716,-0.1696,-0.1959,-0.1959,-0.1959,-0.1959,-0.196,0,-0.1718,-0.1752,-0.1842,-0.1872,-0.1915,-0.1986,-0.2006,-0.2046,-0.2084,-0.2112,-0.2112,-0.2119,-0.2082,-0.2063,-0.2019,-0.1959,-0.1981,-0.1919,-0.1907,-0.1716,-0.1696,-0.1948,-0.1948,-0.1958,-0.1959,-0.1959,-0.1959,0,-0.1647,-0.1716,-0.1777,-0.1871,-0.1889,-0.1897,-0.1969,-0.1997,-0.2035,-0.2069,-0.2063,-0.2105,-0.2073,-0.2047,-0.2004,-0.1968,-0.1923,-0.1898,-0.1671,-0.1634,-0.1859,-0.1859,-0.1835,-0.1834,-0.1832,-0.1831,-0.1831,0,-0.1623,-0.1644,-0.1735,-0.1752,-0.177,-0.1805,-0.1839,-0.1931,-0.1976,-0.2059,-0.2078,-0.2072,-0.2064,-0.2,-0.189,-0.1804,-0.1884,-0.1594,-0.1564,-0.1856,-0.1847,-0.185,-0.1852,-0.1294,-0.1289,-0.1285,-0.1281,0,-0.1565,-0.1569,-0.1616,-0.1655,-0.1676,-0.1748,-0.18,-0.1852,-0.1962,-0.2009,-0.2063,-0.2058,-0.1969,-0.1769,-0.1662,-0.1596,-0.159,-0.1509,-0.1849,-0.1383,-0.135,-0.1341,-0.1359,-0.1244,-0.1247,-0.125,-0.1252,-0.1254,-0.1475,-0.1484,-0.1519,-0.1548,-0.1597,-0.1663,-0.1695,-0.1797,-0.1876,-0.1922,-0.1975,-0.1865,-0.1683,-0.1409,-0.1329,-0.1263,-0.1383,-0.1289,-0.1299,-0.1315,-0.128,-0.1249,-0.1116,-0.1119,-0.1121,-0.1124,-0.1126,0,-0.1396,-0.1405,-0.1423,-0.1483,-0.1521,-0.1553,-0.1662,-0.1703,-0.1787,-0.1741,-0.1749,-0.1373,-0.1207,-0.1087,-0.0904,-0.0886,-0.0868,-0.0867,-0.0798,-0.0833,-0.0865,-0.0808,-0.0518,-0.0517,-0.0517,-0.0516,0,0,-0.135,-0.1347,-0.1372,-0.1393,-0.1415,-0.1433,-0.1474,-0.1557,-0.1536,-0.14,-0.123,-0.1176,-0.1029,-0.0742,-0.0663,-0.0584,-0.0729,-0.0563,-0.103,-0.0982,-0.1015,-0.1065,-0.1011,0,0,0,0,0]},{"header":{"parameterUnit":"m.s-1","parameterCategory":2,"la1":30.2991,"la2":30.254,"lo1":-89.0895,"lo2":-89.0444,"dx":0.0017,"dy":0.0017,"nx":28,"ny":28,"refTime":"2022-12-03T09:00:00:Z","depth":"2","parameterNumber":3,"parameterNumberName":"V-component_of_CURRENTS"},"data":[0,0,0,0,0,0,0,0,0,0,0,0,0,0,0,0,0,0,0,0,0,0,0,0,0,0,0,0,0,0,0,0,0,0,0,0,0,0,0,0,0,0,0,0,0,0,0,0,0,0,0,0,0,0,0,0,0,0,-0.0119,-0.0119,0,-0.0108,-0.0108,-0.0108,-0.0117,-0.0118,-0.0119,-0.0119,-0.0112,-0.0111,-0.011,0,0,0,0,0,0,0,0,0,0,0,0,0,-0.0081,-0.0082,-0.0119,-0.0119,-0.0119,-0.0108,-0.0108,-0.0108,-0.0117,-0.0118,-0.0119,-0.0119,-0.0112,-0.0111,-0.011,0,0,0,0,0,0,0,0,0,0,0,0,0,-0.0085,-0.0082,-0.0119,-0.0124,-0.0125,-0.0108,-0.0108,-0.0107,-0.0117,-0.0118,-0.0119,-0.012,-0.0112,-0.0111,-0.011,-0.0086,0,0,-0.0107,-0.0106,0,0,0,0,0,0,0,0,-0.0085,-0.0086,-0.0123,-0.0124,-0.0124,-0.0117,-0.0092,-0.0101,-0.0117,-0.0118,-0.0119,-0.012,-0.0114,-0.0113,-0.0106,-0.0086,-0.0086,-0.0107,-0.0106,-0.0106,-0.0105,0,0,0,0,0,0,0,-0.0084,-0.0086,-0.0113,-0.0123,-0.0124,-0.0104,-0.0106,-0.0093,-0.011,-0.0118,-0.0119,-0.0121,-0.0115,-0.0107,-0.0106,-0.0085,-0.0107,-0.0106,-0.0105,-0.0105,-0.0073,-0.0073,0,0,0,0,0,0,-0.0092,-0.0086,-0.0113,-0.0113,-0.0108,-0.0104,-0.0106,-0.0117,-0.011,-0.0111,-0.012,-0.0121,-0.0109,-0.0108,-0.0106,-0.0115,-0.0106,-0.0105,-0.0104,-0.0073,-0.0073,-0.0073,0,0,0,0,0,0,-0.0092,-0.0095,-0.0114,-0.01,-0.0101,-0.0105,-0.0116,-0.0116,-0.0125,-0.0112,-0.0112,-0.0131,-0.011,-0.0108,-0.0102,-0.0113,-0.0104,-0.0103,-0.0073,-0.0073,-0.0073,-0.0107,0,0,0,0,0,0,-0.0091,-0.0095,-0.0104,-0.0101,-0.0103,-0.0114,-0.0115,-0.0115,-0.0124,-0.0126,-0.0121,-0.012,-0.011,-0.0103,-0.0101,-0.0111,-0.0102,-0.0074,-0.0073,-0.0073,-0.0106,-0.0108,-0.011,0,0,0,0,0,-0.0089,-0.0105,-0.0104,-0.0107,-0.0115,-0.0114,-0.0113,-0.0116,-0.0124,-0.0127,-0.0121,-0.0121,-0.0099,-0.0102,-0.0099,-0.011,-0.0074,-0.0073,-0.0073,-0.0106,-0.0108,-0.011,0,0,0,0,0,0,-0.0089,-0.0107,-0.0107,-0.0126,-0.0122,-0.0117,-0.0123,-0.0123,-0.012,-0.0129,-0.0116,-0.0114,-0.0113,-0.0102,-0.0105,-0.0098,-0.0088,-0.0086,-0.0113,-0.0115,-0.0117,-0.0112,-0.0101,0,0,0,0,0,-0.0093,-0.0112,-0.0114,-0.0127,-0.0131,-0.0127,-0.0128,-0.0133,-0.013,-0.0131,-0.0122,-0.0114,-0.0104,-0.0104,-0.0091,-0.0086,-0.0057,-0.009,-0.0092,-0.0094,-0.0087,-0.0049,-0.0047,-0.0071,-0.0071,-0.0071,0,0,-0.0093,-0.0107,-0.0116,-0.0128,-0.0128,-0.0136,-0.0131,-0.0142,-0.0143,-0.0129,-0.0128,-0.0119,-0.0103,-0.0098,-0.0097,-0.0094,-0.0071,-0.0093,-0.0095,-0.0087,-0.0049,-0.0046,-0.0044,-0.0071,-0.0071,-0.0071,0,0,-0.0108,-0.012,-0.0141,-0.0144,-0.0155,-0.0151,-0.0159,-0.0159,-0.0155,-0.015,-0.0141,-0.013,-0.0121,-0.0104,-0.0096,-0.0095,-0.0079,-0.0106,-0.0115,-0.008,-0.0077,-0.0075,-0.0033,-0.0027,-0.011,-0.011,-0.011,0,-0.0108,-0.0137,-0.0143,-0.0162,-0.0166,-0.0162,-0.0177,-0.0167,-0.0161,-0.015,-0.0157,-0.0125,-0.0117,-0.0097,-0.0106,-0.0099,-0.008,-0.0113,-0.0082,-0.0079,-0.0076,-0.0034,-0.0026,-0.0111,-0.0111,-0.0111,-0.0111,0,-0.0137,-0.0158,-0.0171,-0.0194,-0.0195,-0.0209,-0.02,-0.0197,-0.0194,-0.0176,-0.0156,-0.0135,-0.0116,-0.0117,-0.0117,-0.0097,-0.009,-0.0088,-0.0079,-0.0076,-0.0031,-0.0023,-0.0114,-0.0113,-0.0113,-0.0112,0,0,-0.0148,-0.0185,-0.0189,-0.0206,-0.0217,-0.0223,-0.0219,-0.0206,-0.0195,-0.0181,-0.0156,-0.0143,-0.013,-0.012,-0.0113,-0.0088,-0.0056,-0.0093,-0.009,-0.0055,0.002,0.0091,0.0107,-0.0062,-0.006,-0.0059,0.0042,0,-0.0169,-0.0212,-0.0218,-0.0247,-0.027,-0.0259,-0.0249,-0.0233,-0.0209,-0.0178,-0.0146,-0.0125,-0.0131,-0.0131,-0.0106,-0.0066,-0.0037,-0.0084,0.0015,0.0019,0.0078,0.0119,0.0013,0.0101,0.0051,0.0052,0.0053,0,-0.0199,-0.0227,-0.026,-0.0281,-0.0287,-0.0292,-0.0276,-0.0268,-0.0216,-0.0197,-0.0164,-0.0134,-0.0096,-0.0105,-0.0024,-0.0061,-0.0027,0.0008,0.0012,0.0099,0.0106,0.009,0.0118,0.0068,0.0067,0.0066,0.0065,0,-0.0218,-0.0255,-0.0283,-0.0292,-0.0308,-0.0311,-0.0312,-0.0273,-0.026,-0.0208,-0.0186,-0.0129,-0.0099,-0.0049,0.0017,-0.0012,0.012,0.0096,0.0202,0.0207,0.0152,0.0151,0.0161,0.0161,0.016,0.016,0.016,0,-0.0248,-0.0271,-0.0296,-0.0316,-0.0338,-0.0336,-0.0334,-0.0322,-0.0284,-0.0258,-0.0205,-0.0162,-0.0089,-0.0006,0.0038,0.0164,0.0142,0.0223,0.0247,0.0139,0.0136,0.013,0.0125,0.0164,0.0163,0.0162,0.0162,0,-0.0265,-0.0284,-0.0321,-0.0345,-0.0354,-0.037,-0.0376,-0.0369,-0.0328,-0.0292,-0.0281,-0.018,-0.006,0.0039,0.0152,0.0209,0.0309,0.0353,0.0233,0.0243,0.0363,0.0355,0.0485,0.0489,0.0492,0.0494,0.0497,0,-0.0279,-0.03,-0.0344,-0.0372,-0.0387,-0.0408,-0.0421,-0.0403,-0.0394,-0.0298,-0.0283,-0.0145,-0.0011,0.0213,0.0326,0.0472,0.0413,0.0429,0.0371,0.039,0.04,0.0387,0.0376,0.0273,0.0273,0.0273,0.0273,0,-0.0295,-0.0306,-0.0334,-0.0399,-0.0432,-0.0466,-0.0483,-0.0483,-0.0443,-0.0384,-0.0271,-0.0139,0.0122,0.0263,0.0463,0.0512,0.0402,0.0441,0.049,0.0224,0.0204,0.0209,0.0201,0.0274,0.0274,0.0274,0.0274,0.0274,-0.0295,-0.0317,-0.0361,-0.0418,-0.0467,-0.0521,-0.0553,-0.0537,-0.0511,-0.0411,-0.0265,-0.0067,0.0013,0.0324,0.044,0.0541,0.0553,0.0461,0.0455,0.0449,0.0424,0.0411,0.0516,0.0517,0.0518,0.0519,0.052,0,-0.0299,-0.0325,-0.0381,-0.0467,-0.0545,-0.0552,-0.0592,-0.0591,-0.0557,-0.0414,-0.0254,-0.0119,0.0071,0.0209,0.0402,0.0517,0.0471,0.0471,0.0327,0.0325,0.0323,0.0286,0.0345,0.0345,0.0346,0.0346,0,0,-0.0303,-0.0349,-0.0385,-0.0516,-0.058,-0.0662,-0.0687,-0.0643,-0.056,-0.0418,-0.0288,-0.0118,0.0043,0.0073,0.017,0.0285,0.0287,0.0291,0.0405,0.0216,0.0214,0.0278,0.0215,0,0,0,0,0]}],[{"header":{"parameterUnit":"m.s-1","parameterCategory":2,"la1":30.2991,"la2":30.254,"lo1":-89.0895,"lo2":-89.0444,"dx":0.0017,"dy":0.0017,"nx":28,"ny":28,"refTime":"2022-12-03T09:00:00:Z","depth":"4","parameterNumber":2,"parameterNumberName":"U-component_of_CURRENTS"},"data":[0,0,0,0,0,0,0,0,0,0,0,0,0,0,0,0,0,0,0,0,0,0,0,0,0,0,0,0,0,0,0,0,0,0,0,0,0,0,0,0,0,0,0,0,0,0,0,0,0,0,0,0,0,0,0,0,0,0,-0.0977,-0.0978,0,-0.1025,-0.1025,-0.1025,-0.1064,-0.1065,-0.1066,-0.1067,-0.1168,-0.1169,-0.1171,0,0,0,0,0,0,0,0,0,0,0,0,0,-0.088,-0.0881,-0.0977,-0.0978,-0.0979,-0.1025,-0.1025,-0.1025,-0.1064,-0.1065,-0.1067,-0.1068,-0.1167,-0.1169,-0.1171,0,0,0,0,0,0,0,0,0,0,0,0,0,-0.0918,-0.0881,-0.0977,-0.1009,-0.1012,-0.1025,-0.1025,-0.1025,-0.1064,-0.1065,-0.1067,-0.1068,-0.1166,-0.1169,-0.1172,-0.1159,0,0,-0.118,-0.1181,0,0,0,0,0,0,0,0,-0.0916,-0.0921,-0.1003,-0.1007,-0.1011,-0.1046,-0.1028,-0.1075,-0.1064,-0.1038,-0.1067,-0.1069,-0.1135,-0.114,-0.1136,-0.1163,-0.1168,-0.118,-0.1181,-0.1183,-0.1183,0,0,0,0,0,0,0,-0.0913,-0.0919,-0.099,-0.1004,-0.1009,-0.1008,-0.1015,-0.1036,-0.1073,-0.104,-0.1045,-0.106,-0.1137,-0.1133,-0.1139,-0.1169,-0.118,-0.1182,-0.1184,-0.1185,-0.1279,-0.128,0,0,0,0,0,0,-0.0921,-0.0917,-0.0988,-0.0992,-0.0973,-0.1009,-0.1016,-0.1028,-0.1072,-0.1082,-0.1058,-0.1061,-0.1128,-0.1136,-0.1143,-0.1214,-0.1183,-0.1185,-0.1187,-0.1278,-0.1279,-0.128,0,0,0,0,0,0,-0.0918,-0.0926,-0.0986,-0.096,-0.0969,-0.101,-0.1022,-0.1028,-0.1058,-0.1087,-0.1096,-0.1086,-0.113,-0.1139,-0.1195,-0.1215,-0.1186,-0.1189,-0.1277,-0.1278,-0.128,-0.1302,0,0,0,0,0,0,-0.0915,-0.0925,-0.0941,-0.0961,-0.0971,-0.1001,-0.1022,-0.1028,-0.1066,-0.1071,-0.1113,-0.1122,-0.1132,-0.1191,-0.1197,-0.1218,-0.1191,-0.1276,-0.1278,-0.1279,-0.1301,-0.1304,-0.1308,0,0,0,0,0,-0.0911,-0.0937,-0.0942,-0.0951,-0.099,-0.1002,-0.1006,-0.1036,-0.1066,-0.1069,-0.1117,-0.1122,-0.1206,-0.1194,-0.1201,-0.1223,-0.1275,-0.1277,-0.1279,-0.1299,-0.1304,-0.1308,0,0,0,0,0,0,-0.0913,-0.0945,-0.095,-0.0987,-0.0994,-0.1011,-0.1039,-0.1051,-0.1087,-0.1119,-0.1138,-0.1149,-0.122,-0.1211,-0.1197,-0.1255,-0.124,-0.1243,-0.1252,-0.1257,-0.126,-0.1324,-0.1193,0,0,0,0,0,-0.0917,-0.0939,-0.0958,-0.0984,-0.1001,-0.1021,-0.1037,-0.1057,-0.109,-0.1109,-0.113,-0.117,-0.1225,-0.1234,-0.1278,-0.1293,-0.1321,-0.1311,-0.1314,-0.1317,-0.1374,-0.1414,-0.1428,-0.1287,-0.1287,-0.1287,0,0,-0.0917,-0.0946,-0.0954,-0.0985,-0.1006,-0.1027,-0.1034,-0.1075,-0.1102,-0.1116,-0.1166,-0.1205,-0.1243,-0.1284,-0.1308,-0.1277,-0.1365,-0.132,-0.1322,-0.1379,-0.1418,-0.1432,-0.1445,-0.1288,-0.1288,-0.1288,0,0,-0.0931,-0.0966,-0.0985,-0.1,-0.1043,-0.1058,-0.1075,-0.11,-0.1127,-0.1185,-0.1209,-0.1266,-0.1315,-0.1334,-0.136,-0.1407,-0.141,-0.1398,-0.1437,-0.1474,-0.1486,-0.1498,-0.1521,-0.1535,-0.1365,-0.1365,-0.1365,0,-0.0933,-0.096,-0.0988,-0.1017,-0.1033,-0.1076,-0.1091,-0.113,-0.1164,-0.1184,-0.1222,-0.1319,-0.1359,-0.14,-0.1438,-0.1421,-0.1434,-0.1413,-0.148,-0.1492,-0.1504,-0.1526,-0.154,-0.1366,-0.1366,-0.1366,-0.1366,0,-0.095,-0.0979,-0.1003,-0.1045,-0.1061,-0.1092,-0.1139,-0.1171,-0.1231,-0.1258,-0.1341,-0.1396,-0.1452,-0.1455,-0.1491,-0.1556,-0.1537,-0.1504,-0.1471,-0.152,-0.1538,-0.1554,-0.1368,-0.1368,-0.1367,-0.1367,0,0,-0.0936,-0.0995,-0.1006,-0.1008,-0.108,-0.1083,-0.1158,-0.1198,-0.1255,-0.1317,-0.1381,-0.1489,-0.1523,-0.1558,-0.1559,-0.1597,-0.1701,-0.1598,-0.1599,-0.1627,-0.1777,-0.1484,-0.1472,-0.1667,-0.167,-0.1673,-0.1746,0,-0.0937,-0.0971,-0.1005,-0.1026,-0.1042,-0.1096,-0.1148,-0.1202,-0.1289,-0.1365,-0.1441,-0.1537,-0.1552,-0.1606,-0.1649,-0.1722,-0.1748,-0.1685,-0.1725,-0.1727,-0.1464,-0.1482,-0.1684,-0.1757,-0.176,-0.1763,-0.1765,0,-0.0936,-0.0961,-0.098,-0.1002,-0.1015,-0.1049,-0.1127,-0.118,-0.1311,-0.1386,-0.1484,-0.157,-0.1686,-0.1696,-0.1821,-0.1777,-0.181,-0.1836,-0.1837,-0.1583,-0.1462,-0.1706,-0.1792,-0.179,-0.1788,-0.1786,-0.1784,0,-0.089,-0.0929,-0.0935,-0.0949,-0.1005,-0.1034,-0.1079,-0.1193,-0.125,-0.1425,-0.1483,-0.163,-0.1727,-0.1808,-0.1834,-0.1887,-0.191,-0.1976,-0.1722,-0.1701,-0.1938,-0.1926,-0.2057,-0.2057,-0.2057,-0.2056,-0.2056,0,-0.0867,-0.0871,-0.0922,-0.0932,-0.0953,-0.1006,-0.107,-0.1149,-0.1286,-0.1317,-0.149,-0.15,-0.1773,-0.1784,-0.1839,-0.1758,-0.1896,-0.1758,-0.1703,-0.1939,-0.1926,-0.1947,-0.1933,-0.2059,-0.2059,-0.2058,-0.2058,0,-0.0813,-0.0854,-0.0858,-0.0915,-0.0937,-0.096,-0.1053,-0.1094,-0.1225,-0.1283,-0.1345,-0.1494,-0.1523,-0.1613,-0.1743,-0.172,-0.1696,-0.1596,-0.1789,-0.1738,-0.1511,-0.1499,-0.1511,-0.1502,-0.1493,-0.1487,-0.1481,0,-0.0786,-0.0786,-0.0834,-0.0835,-0.0869,-0.0918,-0.0946,-0.108,-0.1114,-0.1175,-0.1166,-0.1256,-0.131,-0.1248,-0.1367,-0.1415,-0.1376,-0.1406,-0.1579,-0.1512,-0.1459,-0.1458,-0.1457,-0.1468,-0.1466,-0.1463,-0.1461,0,-0.073,-0.0756,-0.0764,-0.0773,-0.0797,-0.0802,-0.085,-0.0873,-0.0967,-0.1066,-0.101,-0.1039,-0.1016,-0.1131,-0.1094,-0.1111,-0.1455,-0.1325,-0.135,-0.1514,-0.1459,-0.1414,-0.1422,-0.1433,-0.1437,-0.144,-0.1441,0,-0.0697,-0.0682,-0.0698,-0.0695,-0.0697,-0.0672,-0.0719,-0.0721,-0.0783,-0.0878,-0.081,-0.0828,-0.0952,-0.0948,-0.0867,-0.0895,-0.1021,-0.1116,-0.1156,-0.1188,-0.1039,-0.092,-0.0692,0,0,0,0,0,-0.0659,-0.0631,-0.0606,-0.0593,-0.0571,-0.0579,-0.0626,-0.0674,-0.0753,-0.0694,-0.0785,-0.0723,-0.0719,-0.0722,-0.0715,-0.0765,-0.102,-0.0753,-0.1149,-0.1275,-0.1308,-0.1156,0,0,0,0,0,0,-0.0636,-0.062,-0.0593,-0.0502,-0.0448,-0.043,-0.0456,-0.0507,-0.0507,-0.0589,-0.0592,-0.067,-0.0678,-0.0702,-0.0687,-0.0698,-0.0938,-0.0791,-0.0789,-0.1256,-0.1286,-0.1313,-0.1168,0,0,0,0,0]},{"header":{"parameterUnit":"m.s-1","parameterCategory":2,"la1":30.2991,"la2":30.254,"lo1":-89.0895,"lo2":-89.0444,"dx":0.0017,"dy":0.0017,"nx":28,"ny":28,"refTime":"2022-12-03T09:00:00:Z","depth":"4","parameterNumber":3,"parameterNumberName":"V-component_of_CURRENTS"},"data":[0,0,0,0,0,0,0,0,0,0,0,0,0,0,0,0,0,0,0,0,0,0,0,0,0,0,0,0,0,0,0,0,0,0,0,0,0,0,0,0,0,0,0,0,0,0,0,0,0,0,0,0,0,0,0,0,0,0,-0.021,-0.021,0,-0.0222,-0.0223,-0.0223,-0.0215,-0.0215,-0.0214,-0.0214,-0.0204,-0.0204,-0.0205,0,0,0,0,0,0,0,0,0,0,0,0,0,-0.023,-0.0229,-0.021,-0.021,-0.021,-0.0222,-0.0223,-0.0223,-0.0216,-0.0215,-0.0214,-0.0214,-0.0204,-0.0204,-0.0205,0,0,0,0,0,0,0,0,0,0,0,0,0,-0.0231,-0.0229,-0.021,-0.0206,-0.0206,-0.0222,-0.0223,-0.0223,-0.0216,-0.0215,-0.0214,-0.0213,-0.0204,-0.0204,-0.0205,-0.0222,0,0,-0.0206,-0.0206,0,0,0,0,0,0,0,0,-0.0231,-0.0231,-0.0207,-0.0207,-0.0206,-0.0215,-0.0226,-0.0221,-0.0216,-0.0214,-0.0214,-0.0213,-0.0205,-0.0205,-0.0212,-0.0222,-0.0221,-0.0206,-0.0206,-0.0206,-0.0206,0,0,0,0,0,0,0,-0.0231,-0.023,-0.0217,-0.0207,-0.0207,-0.0221,-0.022,-0.0226,-0.0215,-0.0214,-0.0213,-0.0212,-0.0205,-0.0212,-0.0212,-0.0221,-0.0206,-0.0206,-0.0206,-0.0206,-0.025,-0.0251,0,0,0,0,0,0,-0.0224,-0.023,-0.0216,-0.0217,-0.0215,-0.0221,-0.022,-0.0214,-0.0215,-0.0214,-0.0213,-0.0211,-0.0212,-0.0211,-0.0211,-0.0256,-0.0206,-0.0206,-0.0207,-0.0249,-0.025,-0.0251,0,0,0,0,0,0,-0.0224,-0.0222,-0.0216,-0.0223,-0.0223,-0.0221,-0.0215,-0.0215,-0.0224,-0.0214,-0.0213,-0.0221,-0.0211,-0.0211,-0.0223,-0.0255,-0.0207,-0.0207,-0.0248,-0.0249,-0.0251,-0.033,0,0,0,0,0,0,-0.0225,-0.0222,-0.0224,-0.0222,-0.0222,-0.0238,-0.0216,-0.0216,-0.0223,-0.0222,-0.0221,-0.0219,-0.0211,-0.0222,-0.0223,-0.0254,-0.0207,-0.0247,-0.0248,-0.025,-0.0326,-0.0334,-0.0341,0,0,0,0,0,-0.0225,-0.0229,-0.0223,-0.0222,-0.022,-0.0239,-0.0241,-0.0239,-0.0224,-0.0241,-0.0233,-0.0219,-0.0234,-0.0224,-0.0224,-0.0256,-0.0246,-0.0248,-0.025,-0.0323,-0.0332,-0.0341,0,0,0,0,0,0,-0.0238,-0.0229,-0.0222,-0.0222,-0.0235,-0.0237,-0.0246,-0.0244,-0.0252,-0.0246,-0.0233,-0.0232,-0.025,-0.0241,-0.023,-0.0272,-0.0237,-0.024,-0.0292,-0.0301,-0.0308,-0.0307,-0.0207,0,0,0,0,0,-0.0241,-0.0242,-0.0241,-0.0244,-0.0247,-0.0248,-0.0255,-0.0255,-0.0257,-0.026,-0.0261,-0.0257,-0.0261,-0.027,-0.0267,-0.0298,-0.0262,-0.0317,-0.0324,-0.0331,-0.0329,-0.0302,-0.0306,-0.0258,-0.0258,-0.0258,0,0,-0.0246,-0.0242,-0.0242,-0.0248,-0.0251,-0.0277,-0.0251,-0.0264,-0.0289,-0.0258,-0.0289,-0.0278,-0.027,-0.0299,-0.0308,-0.0298,-0.0326,-0.0333,-0.0339,-0.0334,-0.0304,-0.0309,-0.0313,-0.026,-0.0259,-0.0259,0,0,-0.0267,-0.0253,-0.0266,-0.0282,-0.0292,-0.0298,-0.0304,-0.0313,-0.0318,-0.0346,-0.0325,-0.0344,-0.0348,-0.0364,-0.0366,-0.0415,-0.0356,-0.0401,-0.0452,-0.0426,-0.043,-0.0432,-0.0394,-0.0392,-0.0417,-0.0417,-0.0417,0,-0.0277,-0.0291,-0.0277,-0.0303,-0.0321,-0.031,-0.0343,-0.0353,-0.037,-0.0378,-0.0364,-0.0389,-0.0388,-0.043,-0.044,-0.0436,-0.0386,-0.0423,-0.0435,-0.0437,-0.0439,-0.0398,-0.0396,-0.0421,-0.042,-0.042,-0.042,0,-0.0311,-0.0333,-0.0344,-0.0372,-0.0392,-0.0418,-0.0428,-0.0449,-0.0448,-0.0454,-0.0484,-0.049,-0.0503,-0.0513,-0.0488,-0.0508,-0.0456,-0.0439,-0.0414,-0.0448,-0.0404,-0.0399,-0.0427,-0.0425,-0.0424,-0.0423,0,0,-0.0313,-0.0359,-0.0365,-0.0399,-0.043,-0.0453,-0.0491,-0.0523,-0.055,-0.0564,-0.0598,-0.0618,-0.0602,-0.0602,-0.0589,-0.0578,-0.0552,-0.0504,-0.0501,-0.0467,-0.046,-0.0454,-0.0448,-0.0514,-0.0514,-0.0513,-0.0425,0,-0.035,-0.0407,-0.0424,-0.0497,-0.0529,-0.0545,-0.0589,-0.0614,-0.0623,-0.0653,-0.0655,-0.0678,-0.064,-0.0651,-0.0631,-0.0561,-0.0542,-0.0576,-0.043,-0.0427,-0.0418,-0.0445,-0.0513,-0.0422,-0.0421,-0.042,-0.0419,0,-0.0384,-0.0418,-0.0486,-0.0563,-0.0578,-0.0628,-0.0686,-0.0727,-0.0753,-0.0756,-0.077,-0.0745,-0.0743,-0.0705,-0.0614,-0.0618,-0.054,-0.0492,-0.0487,-0.0449,-0.0414,-0.0379,-0.0411,-0.0412,-0.0412,-0.0413,-0.0413,0,-0.039,-0.0469,-0.0524,-0.0551,-0.0629,-0.0672,-0.0719,-0.076,-0.0795,-0.0823,-0.0835,-0.0812,-0.0806,-0.071,-0.0611,-0.0584,-0.0499,-0.0458,-0.0389,-0.0387,-0.0381,-0.0379,-0.0396,-0.0396,-0.0396,-0.0397,-0.0397,0,-0.0423,-0.0476,-0.0538,-0.0573,-0.0655,-0.0702,-0.0783,-0.0823,-0.0873,-0.0892,-0.0887,-0.0878,-0.0795,-0.0734,-0.0624,-0.0501,-0.0509,-0.0397,-0.0369,-0.0416,-0.0419,-0.0377,-0.0376,-0.0393,-0.0394,-0.0395,-0.0395,0,-0.0437,-0.0474,-0.055,-0.0632,-0.0664,-0.0728,-0.0827,-0.0872,-0.0921,-0.0945,-0.0951,-0.0918,-0.0809,-0.0746,-0.0603,-0.053,-0.0421,-0.0383,-0.0452,-0.0429,-0.0309,-0.0313,-0.0258,-0.0257,-0.0256,-0.0256,-0.0255,0,-0.0452,-0.0486,-0.058,-0.0622,-0.067,-0.0759,-0.081,-0.0888,-0.0911,-0.0936,-0.0924,-0.0874,-0.0819,-0.0641,-0.056,-0.0408,-0.0385,-0.0348,-0.0311,-0.0319,-0.0297,-0.0302,-0.0307,-0.0254,-0.0254,-0.0254,-0.0254,0,-0.048,-0.0509,-0.0561,-0.0631,-0.0698,-0.0776,-0.084,-0.0855,-0.0905,-0.0944,-0.0874,-0.0806,-0.0703,-0.0579,-0.0518,-0.0393,-0.0381,-0.0339,-0.0338,-0.0302,-0.0313,-0.0294,-0.0299,-0.0251,-0.0252,-0.0252,-0.0252,0,-0.0494,-0.0528,-0.0576,-0.0642,-0.0715,-0.0763,-0.0808,-0.0812,-0.0849,-0.0854,-0.0806,-0.0733,-0.0695,-0.0569,-0.0481,-0.0405,-0.0338,-0.03,-0.03,-0.0301,-0.0353,-0.0376,-0.0311,0,0,0,0,0,-0.0503,-0.0528,-0.0579,-0.0648,-0.0711,-0.0755,-0.0808,-0.0834,-0.0848,-0.0787,-0.0805,-0.0695,-0.0568,-0.0521,-0.0429,-0.0445,-0.0335,-0.0335,-0.0294,-0.0238,-0.0241,-0.0296,0,0,0,0,0,0,-0.0514,-0.0554,-0.0569,-0.0627,-0.0667,-0.074,-0.0773,-0.0788,-0.0748,-0.0746,-0.0673,-0.0663,-0.0539,-0.0612,-0.0421,-0.0402,-0.036,-0.0289,-0.0287,-0.0236,-0.0239,-0.0241,-0.0299,0,0,0,0,0]}]]